| time (UTC) | temp F | wind direction | speed MPH | gust MPH | rain 1hr in | rain 24hr in | rain mn in | humidity % | barometer mb |
| 20260504000018 | 73 | 5 | 2.0 | 5.0 | 0.00 | 0.52 | 0.00 | 44 | 1021.5 |
| 20260503235019 | 74 | 1 | 3.0 | 5.0 | 0.00 | 0.52 | 0.00 | 42 | 1021.5 |
| 20260503233018 | 76 | 0 | 3.0 | 7.0 | 0.00 | 0.52 | 0.00 | 38 | 1021.5 |
| 20260503232019 | 76 | 350 | 4.0 | 8.0 | 0.00 | 0.52 | 0.00 | 37 | 1021.5 |
| 20260503225018 | 78 | 350 | 6.0 | 9.0 | 0.00 | 0.52 | 0.00 | 36 | 1021.5 |
| 20260503223018 | 78 | 325 | 7.0 | 9.0 | 0.00 | 0.52 | 0.00 | 35 | 1021.5 |
| 20260503221019 | 79 | 303 | 6.0 | 14.0 | 0.00 | 0.52 | 0.00 | 36 | 1021.5 |
| 20260503220019 | 79 | 340 | 4.0 | 9.0 | 0.00 | 0.52 | 0.00 | 36 | 1021.5 |
| 20260503215018 | 79 | 344 | 6.0 | 9.0 | 0.00 | 0.52 | 0.00 | 34 | 1021.5 |
| 20260503214018 | 79 | 315 | 8.0 | 12.0 | 0.00 | 0.52 | 0.00 | 36 | 1021.5 |
| 20260503213018 | 79 | 307 | 6.0 | 12.0 | 0.00 | 0.52 | 0.00 | 36 | 1021.5 |
| 20260503212019 | 79 | 341 | 5.0 | 13.0 | 0.00 | 0.52 | 0.00 | 34 | 1021.5 |
| 20260503211019 | 80 | 304 | 7.0 | 9.0 | 0.00 | 0.52 | 0.00 | 34 | 1021.5 |
| 20260503210019 | 80 | 19 | 3.0 | 7.0 | 0.00 | 0.52 | 0.00 | 36 | 1021.5 |
| 20260503205018 | 79 | 281 | 4.0 | 8.0 | 0.00 | 0.52 | 0.00 | 34 | 1021.5 |
| 20260503204018 | 79 | 315 | 3.0 | 13.0 | 0.00 | 0.52 | 0.00 | 36 | 1021.5 |
| 20260503203019 | 79 | 318 | 3.0 | 15.0 | 0.00 | 0.52 | 0.00 | 36 | 1021.5 |
| 20260503202018 | 79 | 302 | 3.0 | 12.0 | 0.00 | 0.52 | 0.00 | 31 | 1021.5 |
| 20260503201019 | 79 | 325 | 10.0 | 12.0 | 0.00 | 0.52 | 0.00 | 35 | 1021.5 |
| 20260503200018 | 79 | 344 | 8.0 | 12.0 | 0.00 | 0.52 | 0.00 | 36 | 1021.5 |
| 20260503194019 | 78 | 311 | 4.0 | 8.0 | 0.00 | 0.52 | 0.00 | 34 | 1021.5 |
| 20260503193019 | 78 | 351 | 5.0 | 14.0 | 0.00 | 0.52 | 0.00 | 35 | 1021.5 |
| 20260503191019 | 78 | 311 | 3.0 | 12.0 | 0.00 | 0.52 | 0.00 | 37 | 1021.5 |
| 20260503190019 | 77 | 313 | 9.0 | 13.0 | 0.00 | 0.52 | 0.00 | 37 | 1021.5 |
| 20260503185019 | 78 | 317 | 7.0 | 12.0 | 0.00 | 0.52 | 0.00 | 37 | 1021.5 |
| 20260503184019 | 77 | 296 | 7.0 | 16.0 | 0.00 | 0.52 | 0.00 | 40 | 1021.5 |
| 20260503182018 | 76 | 0 | 5.0 | 8.0 | 0.00 | 0.52 | 0.00 | 39 | 1021.5 |
| 20260503181019 | 76 | 311 | 4.0 | 12.0 | 0.00 | 0.52 | 0.00 | 38 | 1021.5 |
| 20260503180019 | 76 | 329 | 10.0 | 12.0 | 0.00 | 0.52 | 0.00 | 37 | 1021.5 |
| 20260503175019 | 76 | 350 | 3.0 | 12.0 | 0.00 | 0.52 | 0.00 | 38 | 1021.5 |
| 20260503174019 | 76 | 321 | 9.0 | 14.0 | 0.00 | 0.52 | 0.00 | 36 | 1021.5 |
| 20260503173019 | 76 | 325 | 7.0 | 13.0 | 0.00 | 0.52 | 0.00 | 38 | 1021.5 |
| 20260503172019 | 76 | 311 | 3.0 | 12.0 | 0.00 | 0.52 | 0.00 | 38 | 1021.5 |
| 20260503171019 | 76 | 329 | 6.0 | 10.0 | 0.00 | 0.52 | 0.00 | 38 | 1021.5 |
| 20260503131019 | 56 | 333 | 3.0 | 6.0 | 0.00 | 0.52 | 0.00 | 83 | 1021.5 |
| 20260503081020 | 48 | 336 | 0.0 | 1.0 | 0.00 | 0.73 | 0.00 | 85 | 1021.5 |
| 20260503072019 | 49 | 334 | 2.0 | 2.0 | 0.00 | 0.89 | 0.00 | 84 | 1021.5 |
| 20260503071019 | 49 | 334 | 2.0 | 3.0 | 0.00 | 0.90 | 0.00 | 84 | 1021.5 |
| 20260503055020 | 50 | 336 | 2.0 | 3.0 | 0.52 | 1.04 | 0.00 | 84 | 1021.5 |
| 20260503054020 | 50 | 336 | 2.0 | 3.0 | 0.52 | 1.04 | 0.00 | 84 | 1021.5 |
| 20260503053020 | 50 | 329 | 4.0 | 5.0 | 0.52 | 1.04 | 0.00 | 84 | 1021.5 |
| 20260503052019 | 50 | 339 | 3.0 | 3.0 | 0.52 | 1.04 | 0.00 | 84 | 1021.5 |
| 20260503051020 | 50 | 341 | 3.0 | 3.0 | 0.52 | 1.04 | 0.00 | 83 | 1021.5 |
| 20260503050020 | 51 | 342 | 3.0 | 3.0 | 0.00 | 1.43 | 0.00 | 83 | 1021.5 |
| 20260503044020 | 51 | 344 | 1.0 | 2.0 | 0.00 | 1.43 | 0.52 | 82 | 1021.5 |
| 20260503043020 | 52 | 344 | 2.0 | 3.0 | 0.00 | 1.43 | 0.52 | 81 | 1021.5 |
| 20260503042020 | 52 | 343 | 3.0 | 3.0 | 0.00 | 1.43 | 0.52 | 80 | 1021.5 |
| 20260503041020 | 52 | 343 | 1.0 | 1.0 | 0.00 | 1.43 | 0.52 | 79 | 1021.5 |
| 20260503040019 | 52 | 343 | 0.0 | 1.0 | 0.00 | 1.43 | 0.52 | 78 | 1021.5 |
| 20260503034020 | 53 | 343 | 0.0 | 2.0 | 0.00 | 1.44 | 0.52 | 77 | 1021.5 |
| 20260503033020 | 53 | 343 | 0.0 | 0.0 | 0.00 | 1.52 | 0.52 | 76 | 1021.5 |
| 20260503032020 | 54 | 343 | 0.0 | 1.0 | 0.00 | 1.55 | 0.52 | 76 | 1021.5 |
| 20260503025020 | 55 | 343 | 1.0 | 2.0 | 0.00 | 1.61 | 0.52 | 74 | 1021.5 |
| 20260503024020 | 56 | 344 | 2.0 | 3.0 | 0.00 | 1.62 | 0.52 | 73 | 1021.5 |
| 20260503023021 | 57 | 344 | 1.0 | 2.0 | 0.00 | 1.65 | 0.52 | 72 | 1021.5 |
| 20260503022020 | 57 | 344 | 1.0 | 2.0 | 0.00 | 1.70 | 0.52 | 70 | 1021.5 |
| 20260503021020 | 58 | 344 | 1.0 | 2.0 | 0.00 | 1.79 | 0.52 | 69 | 1021.5 |
| 20260503020020 | 58 | 344 | 0.0 | 1.0 | 0.00 | 1.79 | 0.52 | 67 | 1021.5 |
| 20260503015020 | 59 | 344 | 1.0 | 2.0 | 0.00 | 1.83 | 0.52 | 67 | 1021.5 |
| 20260503014020 | 60 | 344 | 1.0 | 3.0 | 0.00 | 1.86 | 0.52 | 66 | 1021.5 |
| 20260503012020 | 62 | 344 | 2.0 | 3.0 | 0.00 | 1.86 | 0.52 | 63 | 1021.5 |
| 20260503011020 | 62 | 351 | 2.0 | 3.0 | 0.00 | 1.87 | 0.52 | 61 | 1021.5 |
| 20260503010020 | 63 | 355 | 2.0 | 5.0 | 0.00 | 1.88 | 0.52 | 59 | 1021.5 |
| 20260503005020 | 64 | 337 | 2.0 | 3.0 | 0.00 | 1.95 | 0.52 | 56 | 1021.5 |
| 20260503004020 | 65 | 334 | 3.0 | 6.0 | 0.00 | 2.06 | 0.52 | 54 | 1021.5 |
| 20260503003021 | 66 | 339 | 3.0 | 8.0 | 0.00 | 2.07 | 0.52 | 53 | 1021.5 |
| 20260503002020 | 66 | 343 | 3.0 | 9.0 | 0.00 | 2.07 | 0.52 | 52 | 1021.5 |
| 20260503001021 | 67 | 335 | 5.0 | 10.0 | 0.00 | 2.07 | 0.52 | 50 | 1021.5 |